| time (UTC) | temp F | wind direction | speed knots | gust knots | rain 1hr in | rain 24hr in | rain mn in | humidity % | barometer mb |
| 20260508022005 | 65 | 45 | 6.1 | 13.9 | 0.00 | 0.00 | 0.00 | 89 | 1011.0 |
| 20260508021507 | 65 | 89 | 6.1 | 15.6 | 0.00 | 0.00 | 0.00 | 89 | 1011.0 |
| 20260508015505 | 65 | 51 | 6.1 | 13.9 | 0.00 | 0.00 | 0.00 | 89 | 1011.3 |
| 20260508015006 | 65 | 50 | 6.1 | 15.6 | 0.00 | 0.00 | 0.00 | 89 | 1011.5 |
| 20260508014006 | 65 | 39 | 6.1 | 13.9 | 0.00 | 0.00 | 0.00 | 89 | 1011.7 |
| 20260508013505 | 65 | 50 | 6.1 | 20.0 | 0.00 | 0.00 | 0.00 | 88 | 1012.1 |
| 20260508013006 | 65 | 27 | 7.0 | 20.0 | 0.00 | 0.00 | 0.00 | 88 | 1011.8 |
| 20260508010007 | 65 | 38 | 7.8 | 17.4 | 0.00 | 0.00 | 0.00 | 89 | 1012.4 |
| 20260508003505 | 65 | 84 | 5.2 | 17.4 | 0.00 | 0.00 | 0.00 | 88 | 1012.5 |
| 20260508002005 | 65 | 49 | 4.3 | 13.0 | 0.00 | 0.00 | 0.00 | 88 | 1013.3 |
| 20260508001507 | 65 | 13 | 6.1 | 20.0 | 0.00 | 0.00 | 0.00 | 87 | 1013.5 |
| 20260508001005 | 65 | 46 | 5.2 | 12.2 | 0.00 | 0.00 | 0.00 | 87 | 1013.3 |
| 20260507235505 | 65 | 42 | 7.8 | 14.8 | 0.00 | 0.00 | 0.00 | 87 | 1013.8 |
| 20260507235006 | 65 | 55 | 6.1 | 13.0 | 0.00 | 0.00 | 0.00 | 87 | 1013.8 |
| 20260507233007 | 65 | 48 | 7.0 | 15.6 | 0.00 | 0.00 | 0.00 | 87 | 1014.0 |
| 20260507232505 | 65 | 30 | 6.1 | 14.8 | 0.00 | 0.00 | 0.00 | 87 | 1013.9 |
| 20260507225506 | 65 | 21 | 6.1 | 15.6 | 0.00 | 0.00 | 0.00 | 87 | 1014.7 |
| 20260507225006 | 65 | 31 | 4.3 | 11.3 | 0.00 | 0.00 | 0.00 | 87 | 1015.0 |
| 20260507224505 | 65 | 41 | 7.8 | 15.6 | 0.00 | 0.00 | 0.00 | 87 | 1014.8 |
| 20260507223507 | 65 | 43 | 7.8 | 13.9 | 0.00 | 0.00 | 0.00 | 87 | 1014.8 |
| 20260507222505 | 65 | 20 | 8.7 | 19.1 | 0.00 | 0.00 | 0.00 | 88 | 1015.3 |
| 20260507220504 | 65 | 10 | 13.9 | 19.1 | 0.00 | 0.00 | 0.00 | 87 | 1015.1 |
| 20260507220007 | 65 | 14 | 13.9 | 24.3 | 0.00 | 0.00 | 0.00 | 87 | 1015.3 |
| 20260507215005 | 65 | 10 | 16.5 | 24.3 | 0.00 | 0.00 | 0.00 | 86 | 1015.5 |
| 20260507214504 | 65 | 13 | 14.8 | 25.2 | 0.00 | 0.00 | 0.00 | 86 | 1015.6 |
| 20260507213005 | 65 | 19 | 11.3 | 22.6 | 0.00 | 0.00 | 0.00 | 90 | 1015.3 |
| 20260507212005 | 64 | 14 | 12.2 | 18.2 | 0.00 | 0.00 | 0.00 | 92 | 1015.4 |
| 20260507211505 | 64 | 31 | 4.3 | 14.8 | 0.00 | 0.00 | 0.00 | 92 | 1015.3 |
| 20260507205506 | 63 | 22 | 7.0 | 14.8 | 0.00 | 0.00 | 0.00 | 92 | 1015.9 |
| 20260507205005 | 63 | 12 | 7.8 | 18.2 | 0.00 | 0.00 | 0.00 | 92 | 1016.0 |
| 20260507204007 | 63 | 26 | 7.0 | 14.8 | 0.00 | 0.00 | 0.00 | 92 | 1015.9 |
| 20260507203005 | 63 | 28 | 8.7 | 15.6 | 0.00 | 0.00 | 0.00 | 92 | 1015.9 |
| 20260507202006 | 63 | 13 | 5.2 | 8.7 | 0.00 | 0.00 | 0.00 | 93 | 1015.9 |
| 20260507201505 | 63 | 36 | 6.1 | 8.7 | 0.00 | 0.00 | 0.00 | 93 | 1015.8 |
| 20260507201005 | 63 | 45 | 6.1 | 12.2 | 0.00 | 0.00 | 0.00 | 93 | 1015.7 |
| 20260507200005 | 63 | 73 | 2.6 | 10.4 | 0.00 | 0.00 | 0.00 | 93 | 1015.8 |
| 20260507195505 | 63 | 24 | 6.1 | 12.2 | 0.00 | 0.00 | 0.00 | 94 | 1016.0 |
| 20260507195006 | 63 | 12 | 5.2 | 11.3 | 0.00 | 0.00 | 0.00 | 94 | 1016.1 |
| 20260507194505 | 63 | 44 | 4.3 | 10.4 | 0.00 | 0.00 | 0.00 | 94 | 1015.9 |
| 20260507192505 | 63 | 33 | 6.1 | 13.0 | 0.00 | 0.00 | 0.00 | 94 | 1015.8 |
| 20260507192007 | 63 | 43 | 5.2 | 12.2 | 0.00 | 0.00 | 0.00 | 94 | 1015.7 |
| 20260507191005 | 63 | 33 | 5.2 | 18.2 | 0.00 | 0.00 | 0.00 | 94 | 1015.9 |
| 20260507190506 | 63 | 30 | 5.2 | 13.9 | 0.00 | 0.00 | 0.00 | 93 | 1016.0 |
| 20260507190006 | 63 | 54 | 6.1 | 13.9 | 0.00 | 0.00 | 0.00 | 93 | 1015.9 |
| 20260507185006 | 63 | 15 | 6.1 | 12.2 | 0.00 | 0.00 | 0.00 | 93 | 1015.9 |
| 20260507184504 | 63 | 51 | 5.2 | 13.9 | 0.00 | 0.00 | 0.00 | 93 | 1015.9 |
| 20260507184004 | 63 | 40 | 4.3 | 10.4 | 0.00 | 0.00 | 0.00 | 93 | 1015.8 |
| 20260507183504 | 63 | 33 | 5.2 | 13.0 | 0.00 | 0.00 | 0.00 | 93 | 1016.0 |
| 20260507182505 | 63 | 26 | 6.1 | 13.0 | 0.00 | 0.00 | 0.00 | 93 | 1016.1 |
| 20260507181005 | 63 | 35 | 6.1 | 12.2 | 0.00 | 0.00 | 0.00 | 94 | 1016.1 |
| 20260507174506 | 63 | 39 | 6.1 | 11.3 | 0.00 | 0.00 | 0.00 | 94 | 1016.2 |
| 20260507170504 | 63 | 46 | 8.7 | 14.8 | 0.00 | 0.00 | 0.00 | 93 | 1016.2 |
| 20260507170008 | 63 | 23 | 8.7 | 17.4 | 0.00 | 0.00 | 0.00 | 93 | 1016.5 |
| 20260507165506 | 63 | 13 | 7.8 | 13.9 | 0.00 | 0.00 | 0.00 | 93 | 1016.3 |
| 20260507165007 | 63 | 36 | 7.8 | 14.8 | 0.00 | 0.00 | 0.00 | 93 | 1016.3 |
| 20260507164508 | 63 | 44 | 7.8 | 18.2 | 0.00 | 0.00 | 0.00 | 93 | 1016.5 |
| 20260507163506 | 63 | 28 | 6.1 | 18.2 | 0.00 | 0.00 | 0.00 | 93 | 1016.6 |
| 20260507163009 | 63 | 27 | 8.7 | 17.4 | 0.00 | 0.00 | 0.00 | 93 | 1016.7 |
| 20260507162506 | 63 | 25 | 8.7 | 13.9 | 0.00 | 0.00 | 0.00 | 93 | 1016.8 |
| 20260507162007 | 63 | 26 | 8.7 | 15.6 | 0.00 | 0.00 | 0.00 | 94 | 1016.7 |
| 20260507154008 | 63 | 85 | 2.6 | 7.8 | 0.00 | 0.00 | 0.00 | 94 | 1017.0 |
| 20260507153506 | 63 | 28 | 6.1 | 13.9 | 0.00 | 0.00 | 0.00 | 94 | 1017.3 |
| 20260507152507 | 63 | 47 | 1.7 | 13.9 | 0.00 | 0.00 | 0.00 | 94 | 1017.1 |
| 20260507152007 | 63 | 30 | 5.2 | 13.0 | 0.00 | 0.00 | 0.00 | 94 | 1017.2 |
| 20260507151007 | 63 | 67 | 5.2 | 11.3 | 0.00 | 0.00 | 0.00 | 93 | 1017.2 |
| 20260507150507 | 63 | 42 | 5.2 | 13.0 | 0.00 | 0.00 | 0.00 | 93 | 1017.3 |
| 20260507150007 | 63 | 17 | 7.0 | 13.0 | 0.00 | 0.00 | 0.00 | 93 | 1017.6 |
| 20260507145508 | 63 | 34 | 7.0 | 11.3 | 0.00 | 0.00 | 0.00 | 93 | 1017.5 |
| 20260507143508 | 63 | 16 | 11.3 | 20.0 | 0.00 | 0.01 | 0.00 | 94 | 1017.9 |
| 20260507141508 | 63 | 17 | 6.1 | 13.9 | 0.00 | 0.01 | 0.00 | 94 | 1018.2 |
| 20260507141007 | 63 | 11 | 4.3 | 13.0 | 0.00 | 0.01 | 0.00 | 94 | 1018.4 |
| 20260507140506 | 63 | 29 | 7.8 | 14.8 | 0.00 | 0.01 | 0.00 | 94 | 1018.4 |
| 20260507140009 | 63 | 15 | 6.1 | 12.2 | 0.00 | 0.01 | 0.00 | 93 | 1018.5 |
| 20260507135506 | 63 | 22 | 7.0 | 14.8 | 0.00 | 0.01 | 0.00 | 94 | 1018.5 |
| 20260507135006 | 63 | 23 | 8.7 | 15.6 | 0.00 | 0.01 | 0.00 | 93 | 1018.5 |
| 20260507134508 | 63 | 24 | 6.1 | 14.8 | 0.00 | 0.01 | 0.00 | 93 | 1018.6 |
| 20260507133008 | 63 | 17 | 10.4 | 18.2 | 0.00 | 0.01 | 0.00 | 94 | 1018.8 |
| 20260507131006 | 63 | 21 | 8.7 | 15.6 | 0.00 | 0.01 | 0.00 | 94 | 1018.9 |
| 20260507130506 | 63 | 19 | 8.7 | 14.8 | 0.00 | 0.01 | 0.00 | 94 | 1018.8 |
| 20260507125506 | 63 | 48 | 6.1 | 11.3 | 0.00 | 0.01 | 0.00 | 94 | 1019.1 |
| 20260507125007 | 63 | 16 | 4.3 | 12.2 | 0.00 | 0.01 | 0.00 | 94 | 1019.0 |
| 20260507123007 | 63 | 19 | 5.2 | 14.8 | 0.00 | 0.01 | 0.00 | 94 | 1019.0 |
| 20260507122507 | 63 | 34 | 5.2 | 10.4 | 0.00 | 0.01 | 0.00 | 94 | 1019.1 |
| 20260507122008 | 63 | 26 | 3.5 | 11.3 | 0.00 | 0.01 | 0.00 | 94 | 1019.2 |
| 20260507121508 | 63 | 33 | 6.1 | 13.0 | 0.00 | 0.01 | 0.00 | 94 | 1019.3 |
| 20260507121006 | 63 | 29 | 5.2 | 13.0 | 0.00 | 0.02 | 0.00 | 94 | 1019.2 |
| 20260507120008 | 63 | 40 | 5.2 | 13.0 | 0.00 | 0.02 | 0.00 | 94 | 1019.4 |
| 20260507115506 | 63 | 9 | 5.2 | 11.3 | 0.00 | 0.02 | 0.02 | 94 | 1019.4 |
| 20260507115006 | 63 | 30 | 4.3 | 10.4 | 0.00 | 0.02 | 0.02 | 94 | 1019.4 |
| 20260507114508 | 63 | 29 | 4.3 | 10.4 | 0.00 | 0.03 | 0.02 | 94 | 1019.5 |
| 20260507113506 | 63 | 11 | 5.2 | 13.0 | 0.00 | 0.03 | 0.02 | 94 | 1019.4 |
| 20260507112006 | 63 | 27 | 6.1 | 10.4 | 0.00 | 0.03 | 0.02 | 93 | 1019.7 |
| 20260507111509 | 63 | 38 | 5.2 | 11.3 | 0.00 | 0.03 | 0.02 | 93 | 1019.5 |
| 20260507110007 | 63 | 16 | 6.1 | 11.3 | 0.00 | 0.03 | 0.02 | 93 | 1019.9 |
| 20260507105006 | 63 | 49 | 6.1 | 12.2 | 0.00 | 0.03 | 0.02 | 93 | 1020.0 |
| 20260507103508 | 64 | 31 | 7.0 | 12.2 | 0.00 | 0.03 | 0.02 | 92 | 1020.3 |
| 20260507103006 | 64 | 26 | 6.1 | 12.2 | 0.00 | 0.03 | 0.02 | 92 | 1020.0 |
| 20260507101008 | 64 | 14 | 6.1 | 13.9 | 0.00 | 0.03 | 0.02 | 92 | 1020.2 |
| 20260507095507 | 64 | 12 | 9.6 | 13.9 | 0.00 | 0.03 | 0.02 | 91 | 1020.3 |
| 20260507094506 | 64 | 14 | 10.4 | 18.2 | 0.00 | 0.03 | 0.02 | 91 | 1020.1 |
| 20260507092507 | 64 | 7 | 7.0 | 13.0 | 0.00 | 0.03 | 0.02 | 91 | 1020.1 |
| 20260507092006 | 64 | 15 | 8.7 | 15.6 | 0.00 | 0.03 | 0.02 | 91 | 1020.1 |
| 20260507091506 | 64 | 15 | 9.6 | 13.0 | 0.00 | 0.03 | 0.02 | 91 | 1020.0 |
| 20260507090006 | 64 | 1 | 4.3 | 12.2 | 0.00 | 0.03 | 0.02 | 92 | 1019.7 |
| 20260507085505 | 64 | 37 | 6.1 | 11.3 | 0.00 | 0.03 | 0.02 | 92 | 1019.6 |
| 20260507084506 | 64 | 12 | 3.5 | 13.0 | 0.00 | 0.03 | 0.02 | 92 | 1019.5 |
| 20260507083507 | 63 | 48 | 5.2 | 13.0 | 0.00 | 0.03 | 0.02 | 92 | 1019.4 |
| 20260507082506 | 63 | 63 | 3.5 | 11.3 | 0.00 | 0.03 | 0.02 | 92 | 1019.2 |
| 20260507080008 | 64 | 40 | 4.3 | 11.3 | 0.00 | 0.03 | 0.02 | 92 | 1019.8 |
| 20260507075505 | 63 | 43 | 5.2 | 10.4 | 0.00 | 0.03 | 0.02 | 91 | 1020.1 |
| 20260507075006 | 63 | 50 | 4.3 | 10.4 | 0.00 | 0.03 | 0.02 | 91 | 1019.9 |
| 20260507074506 | 64 | 36 | 4.3 | 10.4 | 0.00 | 0.03 | 0.02 | 91 | 1020.0 |
| 20260507074008 | 64 | 65 | 2.6 | 10.4 | 0.00 | 0.03 | 0.02 | 91 | 1019.7 |
| 20260507073506 | 63 | 32 | 5.2 | 13.9 | 0.00 | 0.03 | 0.02 | 91 | 1019.9 |
| 20260507073006 | 63 | 58 | 6.1 | 13.9 | 0.00 | 0.03 | 0.02 | 91 | 1020.0 |
| 20260507072006 | 64 | 33 | 5.2 | 13.0 | 0.00 | 0.03 | 0.02 | 91 | 1020.0 |
| 20260507071007 | 64 | 43 | 7.8 | 11.3 | 0.00 | 0.03 | 0.02 | 91 | 1020.1 |
| 20260507070507 | 64 | 22 | 4.3 | 11.3 | 0.00 | 0.03 | 0.02 | 90 | 1020.0 |
| 20260507070010 | 64 | 57 | 2.6 | 8.7 | 0.00 | 0.03 | 0.02 | 90 | 1020.1 |
| 20260507065505 | 64 | 48 | 5.2 | 12.2 | 0.00 | 0.03 | 0.02 | 90 | 1020.3 |
| 20260507064505 | 64 | 31 | 5.2 | 12.2 | 0.00 | 0.03 | 0.02 | 89 | 1020.1 |
| 20260507064007 | 64 | 69 | 5.2 | 13.0 | 0.00 | 0.03 | 0.02 | 89 | 1020.4 |
| 20260507063006 | 64 | 52 | 4.3 | 10.4 | 0.00 | 0.03 | 0.02 | 88 | 1020.5 |
| 20260507061506 | 64 | 56 | 5.2 | 11.3 | 0.00 | 0.03 | 0.02 | 87 | 1020.5 |
| 20260507061006 | 64 | 40 | 3.5 | 10.4 | 0.00 | 0.03 | 0.02 | 87 | 1020.4 |
| 20260507060005 | 64 | 46 | 4.3 | 11.3 | 0.00 | 0.03 | 0.02 | 87 | 1020.6 |
| 20260507055509 | 64 | 58 | 4.3 | 12.2 | 0.00 | 0.03 | 0.02 | 87 | 1020.6 |
| 20260507055006 | 64 | 31 | 6.1 | 12.2 | 0.00 | 0.03 | 0.02 | 87 | 1020.6 |
| 20260507053506 | 64 | 53 | 6.1 | 12.2 | 0.00 | 0.03 | 0.02 | 87 | 1020.5 |
| 20260507051505 | 64 | 41 | 4.3 | 8.7 | 0.00 | 0.03 | 0.02 | 86 | 1020.6 |
| 20260507051007 | 64 | 23 | 5.2 | 10.4 | 0.00 | 0.03 | 0.02 | 86 | 1020.5 |
| 20260507050006 | 64 | 31 | 4.3 | 11.3 | 0.00 | 0.03 | 0.02 | 84 | 1020.6 |
| 20260507045505 | 64 | 62 | 4.3 | 10.4 | 0.00 | 0.03 | 0.02 | 84 | 1020.7 |
| 20260507044006 | 65 | 19 | 6.1 | 13.0 | 0.00 | 0.03 | 0.02 | 83 | 1020.7 |
| 20260507043007 | 66 | 24 | 12.2 | 18.2 | 0.00 | 0.03 | 0.02 | 82 | 1020.6 |
| 20260507042005 | 66 | 47 | 8.7 | 15.6 | 0.00 | 0.03 | 0.02 | 81 | 1020.8 |
| 20260507040006 | 67 | 27 | 10.4 | 20.9 | 0.00 | 0.03 | 0.02 | 79 | 1020.9 |
| 20260507034507 | 67 | 10 | 5.2 | 11.3 | 0.00 | 0.03 | 0.02 | 78 | 1020.9 |
| 20260507034006 | 68 | 28 | 6.1 | 13.9 | 0.00 | 0.03 | 0.02 | 78 | 1020.8 |
| 20260507032006 | 68 | 55 | 9.6 | 15.6 | 0.00 | 0.03 | 0.02 | 76 | 1020.9 |
| 20260507031506 | 69 | 28 | 7.0 | 15.6 | 0.00 | 0.03 | 0.02 | 76 | 1020.9 |
| 20260507031006 | 69 | 24 | 7.8 | 13.0 | 0.00 | 0.03 | 0.02 | 76 | 1020.9 |
| 20260507025507 | 69 | 22 | 10.4 | 19.1 | 0.00 | 0.03 | 0.02 | 75 | 1020.9 |
| 20260507025005 | 69 | 18 | 6.1 | 13.9 | 0.00 | 0.03 | 0.02 | 74 | 1021.0 |
| 20260507023506 | 70 | 39 | 7.8 | 15.6 | 0.00 | 0.03 | 0.02 | 73 | 1021.4 |
| 20260507023006 | 70 | 19 | 8.7 | 18.2 | 0.00 | 0.03 | 0.02 | 73 | 1021.4 |